Terminal Aerodrome Forecast
Issued by NWS

Home | Current Version | Previous Version | Text Only | Print | Product List | Glossary On
Versions: 1 2 3 4 5 6 7 8 9 10 11 12 13 14 15 16 17 18 19 20 21 22 23 24 25 26 27 28 29 30 31 32 33 34 35 36 37 38 39 40 41 42 43 44 45 46 47 48 49 50
000
FTUS41 KBUF 260301 AAA
TAFJHW
TAF AMD
KJHW 260301Z 2603/2624 20006KT P6SM FEW150
     FM260800 20005KT 3SM BR FEW020
     FM261100 21006KT P6SM SCT100
     FM261500 24010G18KT P6SM SCT040
     FM262200 27010KT P6SM SCT250=

USA.gov is the U.S. government's official web portal to all federal, state and local government web resources and services.